Location: Auttagershofen
(48.1940°N, 10.0237°E)
Time: 11:33:38
(UTC+00:00)

COSMO-SKYMED 1 - Pass Details

Date: 18 January 2026
Orbit: 577 x 579 km, 97.9° (Epoch: 16 February)

Event Time Altitude Azimuth Distance (km) Brightness Sun altitude
Rises 04:20:52 0° 152° (SSE) 2,789 6.3 -26.6°
Reaches altitude 10° 04:23:03 10° 148° (SSE) 1,894 5.4 -26.2°
Maximum altitude 04:27:02 52° 72° (ENE) 724 3.1 -25.6°
Enters shadow 04:28:12 39° 21° (NNE) 887 3.4 -25.4°
